Time,TemperatureF,DewpointF,PressureIn,WindDirection,WindDirectionDegrees,WindSpeedMPH,WindSpeedGustMPH,Humidity,HourlyPrecipIn,Conditions,Clouds,dailyrainin,SolarRadiationWatts/m^2,SoftwareType,DateUTC
2013-02-27 00:02:00,64.0,62.0,-100.00,WSW,246,4.0,-999.0,92,0.00,,,-99.99,0.000000,,2013-02-27 05:02:00,
2013-02-27 00:12:00,64.0,62.0,-100.00,WSW,252,4.0,-999.0,92,0.00,,,-99.99,0.000000,,2013-02-27 05:12:00,
2013-02-27 00:22:00,64.0,62.0,-100.00,WSW,252,4.0,-999.0,92,0.00,,,-99.99,0.000000,,2013-02-27 05:22:00,
2013-02-27 00:32:00,64.0,62.0,-100.00,WSW,239,3.0,-999.0,92,0.00,,,-99.99,0.000000,,2013-02-27 05:32:00,
2013-02-27 00:42:00,64.0,61.0,-100.00,WSW,239,3.0,-999.0,92,0.00,,,-99.99,0.000000,,2013-02-27 05:42:00,
2013-02-27 00:52:00,64.0,61.0,-100.00,WSW,239,3.0,-999.0,92,0.00,,,-99.99,0.000000,,2013-02-27 05:52:00,
2013-02-27 01:02:00,63.0,61.0,-100.00,WSW,243,3.0,-999.0,93,0.00,,,-99.99,0.000000,,2013-02-27 06:02:00,
2013-02-27 01:11:00,63.0,61.0,-100.00,WSW,244,4.0,-999.0,93,0.00,,,-99.99,0.000000,,2013-02-27 06:11:00,
2013-02-27 01:21:00,63.0,61.0,-100.00,WSW,244,4.0,-999.0,93,0.00,,,-99.99,0.000000,,2013-02-27 06:21:00,
2013-02-27 01:33:00,63.0,61.0,-100.00,WSW,246,3.0,-999.0,93,0.00,,,-99.99,0.000000,,2013-02-27 06:33:00,
2013-02-27 01:42:00,63.0,61.0,-100.00,WSW,247,3.0,-999.0,94,0.00,,,-99.99,0.000000,,2013-02-27 06:42:00,
2013-02-27 01:52:00,63.0,61.0,-100.00,WSW,247,3.0,-999.0,94,0.00,,,-99.99,0.000000,,2013-02-27 06:52:00,
2013-02-27 02:01:00,63.0,61.0,-100.00,WSW,240,3.0,-999.0,94,0.00,,,-99.99,0.000000,,2013-02-27 07:01:00,
2013-02-27 02:12:00,62.0,61.0,-100.00,WSW,238,2.0,-999.0,94,0.00,,,-99.99,0.000000,,2013-02-27 07:12:00,
2013-02-27 02:21:00,62.0,61.0,-100.00,WSW,238,2.0,-999.0,94,0.00,,,-99.99,0.000000,,2013-02-27 07:21:00,
2013-02-27 02:32:00,62.0,60.0,-100.00,WSW,241,2.0,-999.0,94,0.00,,,-99.99,0.000000,,2013-02-27 07:32:00,
2013-02-27 02:42:00,62.0,61.0,-100.00,SW,233,2.0,-999.0,95,0.00,,,-99.99,0.000000,,2013-02-27 07:42:00,
2013-02-27 02:52:00,62.0,61.0,-100.00,SW,233,2.0,-999.0,95,0.00,,,-99.99,0.000000,,2013-02-27 07:52:00,
2013-02-27 03:01:00,62.0,61.0,-100.00,SW,233,2.0,-999.0,95,0.00,,,-99.99,0.000000,,2013-02-27 08:01:00,
2013-02-27 03:11:00,62.0,61.0,-100.00,WSW,250,3.0,-999.0,95,0.00,,,-99.99,0.000000,,2013-02-27 08:11:00,
2013-02-27 03:21:00,62.0,61.0,-100.00,WSW,250,3.0,-999.0,95,0.00,,,-99.99,0.000000,,2013-02-27 08:21:00,
2013-02-27 03:32:00,63.0,61.0,-100.00,West,265,4.0,-999.0,94,0.00,,,-99.99,0.000000,,2013-02-27 08:32:00,
2013-02-27 03:42:00,63.0,61.0,-100.00,West,262,3.0,-999.0,92,0.00,,,-99.99,0.000000,,2013-02-27 08:42:00,
2013-02-27 03:53:00,63.0,61.0,-100.00,West,262,3.0,-999.0,92,0.00,,,-99.99,0.000000,,2013-02-27 08:53:00,
2013-02-27 04:02:00,63.0,61.0,-100.00,WSW,251,3.0,-999.0,91,0.00,,,-99.99,0.000000,,2013-02-27 09:02:00,
2013-02-27 04:12:00,63.0,61.0,-100.00,West,267,3.0,-999.0,91,0.00,,,-99.99,0.000000,,2013-02-27 09:12:00,
2013-02-27 04:22:00,63.0,61.0,-100.00,West,267,3.0,-999.0,91,0.00,,,-99.99,0.000000,,2013-02-27 09:22:00,
2013-02-27 04:32:00,64.0,61.0,-100.00,WSW,256,2.0,-999.0,91,0.00,,,-99.99,0.000000,,2013-02-27 09:32:00,
2013-02-27 04:42:00,64.0,61.0,-100.00,West,277,3.0,-999.0,91,0.00,,,-99.99,0.000000,,2013-02-27 09:42:00,
2013-02-27 04:52:00,64.0,61.0,-100.00,West,277,3.0,-999.0,91,0.00,,,-99.99,0.000000,,2013-02-27 09:52:00,
2013-02-27 05:01:00,64.0,61.0,-100.00,West,278,3.0,-999.0,91,0.00,,,-99.99,0.000000,,2013-02-27 10:01:00,
2013-02-27 05:12:00,64.0,61.0,-100.00,WNW,282,2.0,-999.0,91,0.00,,,-99.99,0.000000,,2013-02-27 10:12:00,
2013-02-27 05:22:00,64.0,61.0,-100.00,WNW,282,2.0,-999.0,91,0.00,,,-99.99,0.000000,,2013-02-27 10:22:00,
2013-02-27 05:32:00,63.0,61.0,-100.00,WNW,294,3.0,-999.0,91,0.00,,,-99.99,0.000000,,2013-02-27 10:32:00,
2013-02-27 05:42:00,62.0,60.0,-100.00,WNW,290,3.0,-999.0,92,0.00,,,-99.99,0.000000,,2013-02-27 10:42:00,
2013-02-27 05:53:00,62.0,60.0,-100.00,WNW,290,3.0,-999.0,92,0.00,,,-99.99,0.000000,,2013-02-27 10:53:00,
2013-02-27 06:02:00,62.0,60.0,-100.00,WNW,293,3.0,-999.0,93,0.00,,,-99.99,0.000000,,2013-02-27 11:02:00,
2013-02-27 06:12:00,62.0,60.0,-100.00,WNW,287,3.0,-999.0,93,0.00,,,-99.99,0.000000,,2013-02-27 11:12:00,
2013-02-27 06:22:00,62.0,60.0,-100.00,WNW,287,3.0,-999.0,93,0.00,,,-99.99,0.000000,,2013-02-27 11:22:00,
2013-02-27 06:32:00,62.0,60.0,-100.00,NW,306,3.0,-999.0,93,0.00,,,-99.99,0.000000,,2013-02-27 11:32:00,
2013-02-27 06:42:00,62.0,60.0,-100.00,NW,306,2.0,-999.0,93,0.00,,,-99.99,0.000000,,2013-02-27 11:42:00,
2013-02-27 06:52:00,62.0,60.0,-100.00,NW,306,2.0,-999.0,93,0.00,,,-99.99,0.000000,,2013-02-27 11:52:00,
2013-02-27 07:02:00,61.0,59.0,-100.00,NW,305,2.0,-999.0,93,0.00,,,-99.99,0.300000,,2013-02-27 12:02:00,
2013-02-27 07:13:00,61.0,59.0,-100.00,West,279,2.0,-999.0,94,0.00,,,-99.99,5.400000,,2013-02-27 12:13:00,
2013-02-27 07:22:00,61.0,59.0,-100.00,West,279,2.0,-999.0,94,0.00,,,-99.99,5.400000,,2013-02-27 12:22:00,
2013-02-27 07:33:00,60.0,59.0,-100.00,WNW,297,2.0,-999.0,94,0.00,,,-99.99,21.200001,,2013-02-27 12:33:00,
2013-02-27 07:42:00,60.0,59.0,-100.00,WNW,297,2.0,-999.0,94,0.00,,,-99.99,21.200001,,2013-02-27 12:42:00,
2013-02-27 07:53:00,60.0,59.0,-100.00,West,279,1.0,-999.0,95,0.00,,,-99.99,39.700001,,2013-02-27 12:53:00,
2013-02-27 08:02:00,61.0,59.0,-100.00,WSW,249,1.0,-999.0,95,0.00,,,-99.99,55.799999,,2013-02-27 13:02:00,
2013-02-27 08:11:00,61.0,59.0,-100.00,WSW,249,1.0,-999.0,95,0.00,,,-99.99,55.799999,,2013-02-27 13:11:00,
2013-02-27 08:22:00,61.0,60.0,-100.00,NW,312,2.0,-999.0,95,0.00,,,-99.99,109.599998,,2013-02-27 13:22:00,
2013-02-27 08:32:00,62.0,60.0,-100.00,NW,325,3.0,-999.0,93,0.00,,,-99.99,201.000000,,2013-02-27 13:32:00,
2013-02-27 08:42:00,63.0,60.0,-100.00,NW,323,5.0,-999.0,89,0.00,,,-99.99,284.899994,,2013-02-27 13:42:00,
2013-02-27 08:52:00,63.0,60.0,-100.00,NW,323,5.0,-999.0,89,0.00,,,-99.99,284.899994,,2013-02-27 13:52:00,
2013-02-27 09:02:00,64.0,59.0,-100.00,NNW,330,4.0,-999.0,84,0.00,,,-99.99,319.100006,,2013-02-27 14:02:00,
2013-02-27 09:12:00,65.0,59.0,-100.00,NW,325,6.0,-999.0,82,0.00,,,-99.99,316.399994,,2013-02-27 14:12:00,
2013-02-27 09:22:00,65.0,59.0,-100.00,NW,325,6.0,-999.0,82,0.00,,,-99.99,316.399994,,2013-02-27 14:22:00,
2013-02-27 09:32:00,65.0,59.0,-100.00,NW,324,6.0,-999.0,80,0.00,,,-99.99,365.299988,,2013-02-27 14:32:00,
2013-02-27 09:42:00,64.0,58.0,-100.00,NW,326,7.0,-999.0,80,0.00,,,-99.99,296.500000,,2013-02-27 14:42:00,
2013-02-27 09:52:00,64.0,58.0,-100.00,NW,326,7.0,-999.0,80,0.00,,,-99.99,296.500000,,2013-02-27 14:52:00,
2013-02-27 10:02:00,65.0,58.0,-100.00,NW,318,7.0,-999.0,78,0.00,,,-99.99,412.899994,,2013-02-27 15:02:00,
2013-02-27 10:12:00,65.0,58.0,-100.00,NW,315,6.0,-999.0,77,0.00,,,-99.99,374.399994,,2013-02-27 15:12:00,
2013-02-27 10:22:00,65.0,58.0,-100.00,NW,315,6.0,-999.0,77,0.00,,,-99.99,374.399994,,2013-02-27 15:22:00,
2013-02-27 10:32:00,66.0,58.0,-100.00,NW,314,6.0,-999.0,75,0.00,,,-99.99,427.700012,,2013-02-27 15:32:00,
2013-02-27 10:42:00,66.0,58.0,-100.00,WNW,302,4.0,-999.0,74,0.00,,,-99.99,510.399994,,2013-02-27 15:42:00,
2013-02-27 10:52:00,66.0,58.0,-100.00,WNW,302,4.0,-999.0,74,0.00,,,-99.99,510.399994,,2013-02-27 15:52:00,
2013-02-27 11:02:00,66.0,57.0,-100.00,WNW,291,7.0,-999.0,73,0.00,,,-99.99,353.200012,,2013-02-27 16:02:00,
2013-02-27 11:12:00,66.0,57.0,-100.00,WNW,286,6.0,-999.0,72,0.00,,,-99.99,486.899994,,2013-02-27 16:12:00,
2013-02-27 11:22:00,66.0,57.0,-100.00,WNW,286,6.0,-999.0,72,0.00,,,-99.99,486.899994,,2013-02-27 16:22:00,
2013-02-27 11:32:00,67.0,57.0,-100.00,WNW,299,6.0,-999.0,70,0.00,,,-99.99,482.200012,,2013-02-27 16:32:00,
2013-02-27 11:42:00,67.0,57.0,-100.00,NW,304,6.0,-999.0,70,0.00,,,-99.99,439.600006,,2013-02-27 16:42:00,
2013-02-27 11:52:00,67.0,57.0,-100.00,NW,304,6.0,-999.0,70,0.00,,,-99.99,439.600006,,2013-02-27 16:52:00,
2013-02-27 12:02:00,68.0,57.0,-100.00,WNW,302,5.0,-999.0,68,0.00,,,-99.99,690.400024,,2013-02-27 17:02:00,
2013-02-27 12:11:00,68.0,57.0,-100.00,WNW,302,5.0,-999.0,68,0.00,,,-99.99,690.400024,,2013-02-27 17:11:00,
2013-02-27 12:21:00,68.0,57.0,-100.00,WNW,293,6.0,-999.0,65,0.00,,,-99.99,758.000000,,2013-02-27 17:21:00,
2013-02-27 12:32:00,69.0,56.0,-100.00,NW,314,5.0,-999.0,63,0.00,,,-99.99,802.000000,,2013-02-27 17:32:00,
2013-02-27 12:42:00,69.0,56.0,-100.00,WNW,294,5.0,-999.0,63,0.00,,,-99.99,800.000000,,2013-02-27 17:42:00,
2013-02-27 12:52:00,69.0,56.0,-100.00,WNW,294,5.0,-999.0,63,0.00,,,-99.99,800.000000,,2013-02-27 17:52:00,
2013-02-27 13:02:00,70.0,56.0,-100.00,West,265,6.0,-999.0,61,0.00,,,-99.99,573.299988,,2013-02-27 18:02:00,
2013-02-27 13:11:00,70.0,55.0,-100.00,West,259,6.0,-999.0,59,0.00,,,-99.99,720.000000,,2013-02-27 18:11:00,
2013-02-27 13:22:00,70.0,55.0,-100.00,West,259,6.0,-999.0,59,0.00,,,-99.99,720.000000,,2013-02-27 18:22:00,
2013-02-27 13:32:00,71.0,55.0,-100.00,West,268,6.0,-999.0,58,0.00,,,-99.99,704.000000,,2013-02-27 18:32:00,
2013-02-27 13:42:00,71.0,55.0,-100.00,WNW,285,6.0,-999.0,57,0.00,,,-99.99,721.000000,,2013-02-27 18:42:00,
2013-02-27 13:52:00,71.0,55.0,-100.00,WNW,285,6.0,-999.0,57,0.00,,,-99.99,721.000000,,2013-02-27 18:52:00,
2013-02-27 14:01:00,72.0,54.0,-100.00,WSW,253,5.0,-999.0,53,0.00,,,-99.99,728.000000,,2013-02-27 19:01:00,
2013-02-27 14:12:00,72.0,54.0,-100.00,WNW,297,5.0,-999.0,52,0.00,,,-99.99,681.900024,,2013-02-27 19:12:00,
2013-02-27 14:21:00,72.0,54.0,-100.00,WNW,297,5.0,-999.0,52,0.00,,,-99.99,681.900024,,2013-02-27 19:21:00,
2013-02-27 14:32:00,72.0,54.0,-100.00,West,275,5.0,-999.0,51,0.00,,,-99.99,624.700012,,2013-02-27 19:32:00,
2013-02-27 14:42:00,73.0,54.0,-100.00,West,280,4.0,-999.0,51,0.00,,,-99.99,673.900024,,2013-02-27 19:42:00,
2013-02-27 14:52:00,73.0,54.0,-100.00,West,280,4.0,-999.0,51,0.00,,,-99.99,673.900024,,2013-02-27 19:52:00,
2013-02-27 15:01:00,75.0,54.0,-100.00,SW,232,4.0,-999.0,47,0.00,,,-99.99,668.900024,,2013-02-27 20:01:00,
2013-02-27 15:12:00,75.0,53.0,-100.00,West,263,4.0,-999.0,46,0.00,,,-99.99,603.299988,,2013-02-27 20:12:00,
2013-02-27 15:22:00,75.0,53.0,-100.00,West,263,4.0,-999.0,46,0.00,,,-99.99,603.299988,,2013-02-27 20:22:00,
2013-02-27 15:32:00,75.0,52.0,-100.00,WSW,257,6.0,-999.0,44,0.00,,,-99.99,597.099976,,2013-02-27 20:32:00,
2013-02-27 15:42:00,75.0,52.0,-100.00,West,267,6.0,-999.0,43,0.00,,,-99.99,531.900024,,2013-02-27 20:42:00,
2013-02-27 15:52:00,75.0,52.0,-100.00,West,267,6.0,-999.0,43,0.00,,,-99.99,531.900024,,2013-02-27 20:52:00,
2013-02-27 16:02:00,75.0,52.0,-100.00,West,271,7.0,-999.0,43,0.00,,,-99.99,484.600006,,2013-02-27 21:02:00,
2013-02-27 16:11:00,75.0,51.0,-100.00,West,262,7.0,-999.0,42,0.00,,,-99.99,458.100006,,2013-02-27 21:11:00,
2013-02-27 16:22:00,75.0,51.0,-100.00,West,262,7.0,-999.0,42,0.00,,,-99.99,458.100006,,2013-02-27 21:22:00,
2013-02-27 16:32:00,76.0,51.0,-100.00,West,280,7.0,-999.0,42,0.00,,,-99.99,431.899994,,2013-02-27 21:32:00,
2013-02-27 16:42:00,75.0,51.0,-100.00,WNW,282,6.0,-999.0,42,0.00,,,-99.99,269.100006,,2013-02-27 21:42:00,
2013-02-27 16:52:00,75.0,51.0,-100.00,WNW,282,6.0,-999.0,42,0.00,,,-99.99,269.100006,,2013-02-27 21:52:00,
2013-02-27 17:01:00,75.0,51.0,-100.00,West,265,7.0,-999.0,42,0.00,,,-99.99,282.100006,,2013-02-27 22:01:00,
2013-02-27 17:11:00,75.0,51.0,-100.00,WSW,257,6.0,-999.0,44,0.00,,,-99.99,145.899994,,2013-02-27 22:11:00,
2013-02-27 17:21:00,75.0,51.0,-100.00,WSW,257,6.0,-999.0,44,0.00,,,-99.99,145.899994,,2013-02-27 22:21:00,
2013-02-27 17:32:00,74.0,52.0,-100.00,West,280,7.0,-999.0,46,0.00,,,-99.99,107.300003,,2013-02-27 22:32:00,
2013-02-27 17:42:00,73.0,52.0,-100.00,WNW,285,6.0,-999.0,47,0.00,,,-99.99,120.699997,,2013-02-27 22:42:00,
2013-02-27 17:52:00,73.0,52.0,-100.00,WNW,285,6.0,-999.0,47,0.00,,,-99.99,120.699997,,2013-02-27 22:52:00,
2013-02-27 18:01:00,73.0,52.0,-100.00,West,277,6.0,-999.0,47,0.00,,,-99.99,120.599998,,2013-02-27 23:01:00,
2013-02-27 18:11:00,72.0,52.0,-100.00,WNW,286,6.0,-999.0,49,0.00,,,-99.99,36.299999,,2013-02-27 23:11:00,
2013-02-27 18:21:00,72.0,52.0,-100.00,WNW,286,6.0,-999.0,49,0.00,,,-99.99,36.299999,,2013-02-27 23:21:00,
2013-02-27 18:32:00,70.0,52.0,-100.00,WNW,298,7.0,-999.0,53,0.00,,,-99.99,16.299999,,2013-02-27 23:32:00,
2013-02-27 18:42:00,69.0,53.0,-100.00,WNW,300,6.0,-999.0,57,0.00,,,-99.99,3.900000,,2013-02-27 23:42:00,
2013-02-27 18:53:00,69.0,53.0,-100.00,WNW,300,6.0,-999.0,57,0.00,,,-99.99,3.900000,,2013-02-27 23:53:00,
2013-02-27 19:02:00,67.0,53.0,-100.00,WNW,291,4.0,-999.0,60,0.00,,,-99.99,0.500000,,2013-02-28 00:02:00,
2013-02-27 19:12:00,67.0,53.0,-100.00,WNW,294,5.0,-999.0,62,0.00,,,-99.99,0.000000,,2013-02-28 00:12:00,
2013-02-27 19:21:00,67.0,53.0,-100.00,WNW,294,5.0,-999.0,62,0.00,,,-99.99,0.000000,,2013-02-28 00:21:00,
2013-02-27 19:32:00,66.0,53.0,-100.00,WNW,295,6.0,-999.0,64,0.00,,,-99.99,0.000000,,2013-02-28 00:32:00,
2013-02-27 19:42:00,66.0,53.0,-100.00,WNW,295,6.0,-999.0,64,0.00,,,-99.99,0.000000,,2013-02-28 00:42:00,
2013-02-27 19:52:00,65.0,53.0,-100.00,WNW,292,6.0,-999.0,65,0.00,,,-99.99,0.000000,,2013-02-28 00:52:00,
2013-02-27 20:01:00,64.0,53.0,-100.00,WNW,299,7.0,-999.0,66,0.00,,,-99.99,0.000000,,2013-02-28 01:01:00,
2013-02-27 20:11:00,63.0,53.0,-100.00,WNW,298,6.0,-999.0,68,0.00,,,-99.99,0.000000,,2013-02-28 01:11:00,
2013-02-27 20:22:00,63.0,53.0,-100.00,WNW,298,6.0,-999.0,68,0.00,,,-99.99,0.000000,,2013-02-28 01:22:00,
2013-02-27 20:32:00,62.0,53.0,-100.00,WNW,290,5.0,-999.0,71,0.00,,,-99.99,0.000000,,2013-02-28 01:32:00,
2013-02-27 20:42:00,62.0,53.0,-100.00,WNW,289,5.0,-999.0,72,0.00,,,-99.99,0.000000,,2013-02-28 01:42:00,
2013-02-27 20:52:00,62.0,53.0,-100.00,WNW,289,5.0,-999.0,72,0.00,,,-99.99,0.000000,,2013-02-28 01:52:00,
2013-02-27 21:01:00,61.0,53.0,-100.00,WNW,287,5.0,-999.0,73,0.00,,,-99.99,0.000000,,2013-02-28 02:01:00,
2013-02-27 21:11:00,60.0,52.0,-100.00,WNW,297,5.0,-999.0,74,0.00,,,-99.99,0.000000,,2013-02-28 02:11:00,
2013-02-27 21:22:00,60.0,52.0,-100.00,WNW,297,5.0,-999.0,74,0.00,,,-99.99,0.000000,,2013-02-28 02:22:00,
2013-02-27 21:32:00,60.0,52.0,-100.00,WNW,298,5.0,-999.0,75,0.00,,,-99.99,0.000000,,2013-02-28 02:32:00,
2013-02-27 21:42:00,60.0,52.0,-100.00,WNW,298,5.0,-999.0,75,0.00,,,-99.99,0.000000,,2013-02-28 02:42:00,
2013-02-27 21:52:00,60.0,52.0,-100.00,WNW,298,5.0,-999.0,75,0.00,,,-99.99,0.000000,,2013-02-28 02:52:00,
2013-02-27 22:02:00,58.0,51.0,-100.00,WNW,298,6.0,-999.0,77,0.00,,,-99.99,0.000000,,2013-02-28 03:02:00,
2013-02-27 22:11:00,58.0,51.0,-100.00,WNW,298,6.0,-999.0,77,0.00,,,-99.99,0.000000,,2013-02-28 03:11:00,
2013-02-27 22:21:00,58.0,51.0,-100.00,WNW,295,5.0,-999.0,77,0.00,,,-99.99,0.000000,,2013-02-28 03:21:00,
2013-02-27 22:32:00,58.0,51.0,-100.00,WNW,286,4.0,-999.0,78,0.00,,,-99.99,0.000000,,2013-02-28 03:32:00,
2013-02-27 22:42:00,58.0,51.0,-100.00,WNW,297,5.0,-999.0,78,0.00,,,-99.99,0.000000,,2013-02-28 03:42:00,
2013-02-27 22:52:00,58.0,51.0,-100.00,WNW,297,5.0,-999.0,78,0.00,,,-99.99,0.000000,,2013-02-28 03:52:00,
2013-02-27 23:02:00,57.0,51.0,-100.00,WNW,298,7.0,-999.0,77,0.00,,,-99.99,0.000000,,2013-02-28 04:02:00,
2013-02-27 23:11:00,57.0,50.0,-100.00,WNW,293,6.0,-999.0,78,0.00,,,-99.99,0.000000,,2013-02-28 04:11:00,
2013-02-27 23:22:00,57.0,50.0,-100.00,WNW,293,6.0,-999.0,78,0.00,,,-99.99,0.000000,,2013-02-28 04:22:00,
2013-02-27 23:32:00,56.0,50.0,-100.00,WNW,300,6.0,-999.0,80,0.00,,,-99.99,0.000000,,2013-02-28 04:32:00,
2013-02-27 23:42:00,56.0,51.0,-100.00,WNW,295,5.0,-999.0,81,0.00,,,-99.99,0.000000,,2013-02-28 04:42:00,
2013-02-27 23:52:00,56.0,51.0,-100.00,WNW,295,5.0,-999.0,81,0.00,,,-99.99,0.000000,,2013-02-28 04:52:00,